Regional Weather Roundup
Issued by NWS Upton, NY

Current Version | Previous Version | Graphics & Text | Print | Product List | Glossary Off
Versions: 1 2 3 4 5 6 7 8 9 10 11 12 13 14 15 16 17 18 19 20 21 22 23 24 25 26 27 28 29 30 31 32 33 34 35 36 37 38 39 40 41 42 43 44 45 46 47 48 49 50

000
ASUS41 KOKX 251305
RWROKX

REGIONAL WEATHER ROUNDUP
NATIONAL WEATHER SERVICE NEW YORK NY
800 AM EST TUE NOV 25 2014

NOTE: "FAIR" INDICATES FEW OR NO CLOUDS BELOW 12,000 FEET WITH NO
SIGNIFICANT WEATHER AND/OR OBSTRUCTIONS TO VISIBILITY.

NYZ071-072-176-178-NJZ106-104-251400-
NEW YORK CITY METRO AREA


CITY           SKY/WX    TMP DP  RH WIND       PRES   REMARKS
CENTRAL PARK   CLOUDY    59  33  37 VRB5G17   29.96R
LAGUARDIA APRT CLOUDY    59  34  39 NW14G23   29.93R
KENNEDY INTL   CLOUDY    60  36  40 W15       29.94R
NEWARK/LIBERTY CLOUDY    58  34  40 W15       29.94R
BRNX BOT. GARD   N/A     59  32  36 W10       29.93S
TETERBORO      CLOUDY    57  34  41 W12       29.93R
$$

NYZ177-179-078>081-251400-
LONG ISLAND NEW YORK

CITY           SKY/WX    TMP DP  RH WIND       PRES   REMARKS
FARMINGDALE    NOT AVBL
ISLIP          CLOUDY    55  53  93 W6        29.91R FOG
SHIRLEY        CLOUDY    56  54  93 W3        29.92R FOG
WESTHAMPTON    CLOUDY    57  54  89 W6        29.91R FOG
MONTAUK POINT    N/A     60  56  86 SW5       29.90R
$$

NYZ052-065-067-251400-
HUDSON VALLEY

CITY           SKY/WX    TMP DP  RH WIND       PRES   REMARKS
WHITE PLAINS   CLOUDY    57  33  40 W12       29.92R
NEWBURGH       MOCLDY    54  32  43 W12G23    29.93
MONTGOMERY     CLOUDY    53  29  39 W15       29.91R
POUGHKEEPSIE   CLOUDY    56  31  38 SW12      29.91R
ALBANY         CLOUDY    45  36  70 NW8       29.88R
$$

NJZ001-105-106-008-010-013-015-019>022-104-251400-
NEW JERSEY

CITY           SKY/WX    TMP DP  RH WIND       PRES   REMARKS
NEWARK/LIBERTY CLOUDY    58  34  40 W15       29.94R
TETERBORO      CLOUDY    57  34  41 W12       29.93R
CALDWELL       CLOUDY    55  33  43 NW8       29.95R
MORRISTOWN     CLOUDY    55  34  44 W15       29.95R
SOMERVILLE     CLOUDY    55  32  41 MISG      29.95R
SUSSEX         CLOUDY    52  31  44 SW6       29.95R
ANDOVER          N/A     51  31  46 VRB6G18   29.96R
TRENTON        CLOUDY    56  35  45 NW12      29.96R
MILLVILLE      CLOUDY    58  39  49 NW10      29.96R
ATLANTIC CITY  CLOUDY    59  51  75 NW14      29.95R
WRIGHTSTOWN    CLOUDY    57  37  46 NW12G18   29.95R
TOMS RIVER     CLOUDY    55  43  62 NW5       29.96R
BELMAR         CLOUDY    57  36  44 W9        29.94R
$$

PAZ047>061-062-071-251400-
EASTERN PENNSYLVANIA

CITY           SKY/WX    TMP DP  RH WIND       PRES   REMARKS
PHILADELPHIA   CLOUDY    58  35  42 NW10      29.97R
ALLENTOWN      CLOUDY    50  30  46 W10       29.98R
SCRANTON       PTCLDY    45  27  49 W10       29.96R
$$

CTZ002-004>006-009-010-012-RIZ004-006-007-MAZ004-011-015-251400-
SOUTHERN NEW ENGLAND
 IN CT

CITY           SKY/WX    TMP DP  RH WIND       PRES   REMARKS
BRADLEY INTL   CLOUDY    59  40  49 SW8       29.86R
HARTFORD       CLOUDY    60  38  43 SW10G20   29.88R
DANBURY        CLOUDY    56  32  40 W5        29.91R
WTRBRY/OXFORD  PTCLDY    55  36  47 W7        29.91R
BRIDGEPORT     CLOUDY    58  46  64 W7        29.90R
MERIDEN        CLOUDY    51  50  96 CALM      29.89R FOG
NEW HAVEN      CLOUDY    56  52  86 CALM      29.89R
CHESTER        FAIR      55  54  94 W3        29.90R
GROTON         CLOUDY    57  56  96 W6        29.88R FOG
WILLIMANTIC    CLOUDY    55  52  89 CALM      29.88R

 IN RI

CITY           SKY/WX    TMP DP  RH WIND       PRES   REMARKS
PROVIDENCE     CLOUDY    56  55  97 SW3       29.88R
BLOCK ISLAND   CLOUDY    55  52  88 SW12      29.89R
WESTERLY       CLOUDY    56  55  97 SW3       29.90R FOG

 IN MA

CITY           SKY/WX    TMP DP  RH WIND       PRES   REMARKS
BOSTON         CLOUDY    58  54  86 SW15      29.82R
WORCESTER      CLOUDY    55  47  74 SW17G24   29.84R
WESTFIELD      CLOUDY    58  35  42 SW13      29.85R
PROVINCETOWN   CLOUDY    54  52  94 S12       29.87R VSB 1/4
NANTUCKET      CLOUDY    55  53  93 SW9       29.89F FOG
$$

ANZ330-335-338-340-345-350-353-355-251400-
COASTAL MARINE OBSERVATIONS


STATION/POSITION TIME  SKY/WX   TEMP    WIND        PRES    VSBY  WAVE
                                AIR SEA DIR/SP/G                  HT/PER
                 (UTC)          (F)     (DEG/KT/KT) (MB)    (MI)  (FT/S)
NY HARB ENTRANCE 1300            57 55  270/  6/  8 1014.2          6/10
4S FIRE IS       1300               53                N/A           8/ 9
20S FIRE ISLAND  1300            58 55  250/ 10/ 12 1013.1          8/ 9
23SW MTP         1300                                 N/A           9/ 9
HUDSON CANYON    1300            61 60  220/ 17/ 19 1013.7          9/10
EXECUTION ROCKS  1300            58 48  300/ 12/ 17   N/A
WESTERN LI SOUND 1300            58     290/ 12/ 14   N/A           0
CENTRAL LI SOUND 1200            53 50  250/  8/ 10   N/A           1/ 3
EASTERN LI SOUND 1200            54 53  250/  4/  6   N/A
ROBBINS REEF     1300            59     300/ 19/ 22 1012.1
$$


>>>>>>>>>>>>>>>>>>>>>>>>>>>> KEY <<<<<<<<<<<<<<<<<<<<<<<<<<<
>                                                          <
>     SKY/WX - SKY CONDITION/PRESENT WEATHER               <
>     TMP    - TEMPERATURE IN FAHRENHEIT                   <
>     DP     - DEWPOINT IN FAHRENHEIT                      <
>     RH     - RELATIVE HUMIDITY IN PERCENT                <
>     WIND   - DIRECTION AND SPEED IN MPH                  <
>     PRES   - MEAN SEA LEVEL PRESSURE IN INCHES OF HG     <
>     WCI    - WIND CHILL INDEX                            <
>     VSB    - VISIBILITY IN MILES                         <
>     HX     - HEAT INDEX                                  <
>     TC     - TEMPERATURE IN CELSIUS                      <
>     VRB    - VARIABLE WIND DIRECTION                     <
>                                                          <
>>>>>>>>>>>>>>>>>>>>>>>>>>>> KEY <<<<<<<<<<<<<<<<<<<<<<<<<<<




USA.gov is the U.S. government's official web portal to all federal, state and local government web resources and services.